This is the latest recevied weather packets stored in our database for station/object KF7SOJ. If no packets are shown the sender has not sent any weather packets the latest 10 day(s).
| Time | Temp. | Humidity | Pressure | Rain* | Wind** | Luminosity | Snow |
|---|---|---|---|---|---|---|---|
| 1777573050 | 13.89° C | 29% | 937.7 hPa | 0 mm | - | 935 W/m² | - |
| 1777572748 | 14.44° C | 29% | 937.5 hPa | 0 mm | - | 911 W/m² | - |
| 1777572447 | 13.89° C | 31% | 937.7 hPa | 0 mm | - | 925 W/m² | - |
| 1777572144 | 13.89° C | 28% | 937.8 hPa | 0 mm | - | 921 W/m² | - |
| 1777571839 | 13.89° C | 28% | 938 hPa | 0 mm | - | 860 W/m² | - |
| 1777571535 | 13.89° C | 31% | 938 hPa | 0 mm | - | 912 W/m² | - |
| 1777571232 | 13.33° C | 29% | 937.7 hPa | 0 mm | - | 899 W/m² | - |
| 1777570928 | 13.33° C | 30% | 937.8 hPa | 0 mm | - | 886 W/m² | - |
| 1777570624 | 13.89° C | 30% | 938 hPa | 0 mm | - | 880 W/m² | - |
| 1777570321 | 13.89° C | 29% | 938 hPa | 0 mm | - | 841 W/m² | - |
| 1777570016 | 13.89° C | 28% | 937.8 hPa | 0 mm | - | 810 W/m² | - |
| 1777569712 | 13.33° C | 28% | 938 hPa | 0 mm | - | 766 W/m² | - |
| 1777569408 | 13.89° C | 31% | 937.8 hPa | 0 mm | - | 781 W/m² | - |
| 1777569104 | 13.89° C | 30% | 938 hPa | 0 mm | - | 819 W/m² | - |
| 1777568802 | 13.89° C | 29% | 938 hPa | 0 mm | - | 803 W/m² | - |
| 1777568499 | 13.33° C | 30% | 938 hPa | 0 mm | - | 812 W/m² | - |
| 1777568195 | 13.33° C | 28% | 938.1 hPa | 0 mm | - | 796 W/m² | - |
| 1777567892 | 13.33° C | 30% | 938 hPa | 0 mm | - | 781 W/m² | - |
| 1777567588 | 13.33° C | 31% | 938.1 hPa | 0 mm | - | 760 W/m² | - |
| 1777567286 | 13.33° C | 30% | 937.8 hPa | 0 mm | - | 748 W/m² | - |
| 1777566984 | 13.33° C | 29% | 938.2 hPa | 0 mm | - | 739 W/m² | - |
| 1777566682 | 13.33° C | 28% | 938.2 hPa | 0 mm | - | 724 W/m² | - |
| 1777566379 | 13.33° C | 30% | 938.1 hPa | 0 mm | - | 712 W/m² | - |
| 1777566076 | 13.33° C | 29% | 938.1 hPa | 0 mm | - | 700 W/m² | - |
| 1777565771 | 13.33° C | 30% | 938.1 hPa | 0 mm | - | 683 W/m² | - |
* Rain latest hour (hover to see other rain measurements)
** Current wind speed in m/s (hover to see current wind gust speed)